User: anonymous   Login
Location: Camp at the Woods
(43.2055°N, 93.0905°W)
Time: 07:10:28
(UTC+00:00)
Language:

CENTAUR R/B - Orbit

View from above orbital plane
View from above orbital plane
View from above satellite
View from above satellite

Ground track
Ground track

The orbit data is extracted from the following two-line orbital elements,

1 26906U 01040B   24111.88745916 0.00000980  00000-0  65100-3 0    00
2 26906  63.4305  30.1991 0558072 339.4523  20.6491 13.44480725    05
Epoch (UTC): 20 April 2024 21:17:56
Eccentricity: 0.0558072
inclination: 63.4305°
perigee height: 676 km
apogee height: 1509 km
right ascension of ascending node: 30.1991°
argument of perigee: 339.4523°
revolutions per day: 13.44480725
mean anomaly at epoch: 20.6491°
orbit number at epoch: 0

The dashed part of the orbit path shows where the satellite is in the earth's shadow,  

DLR